Wautoma, WI

9:33 PM CST on December 12, 2017 (GMT -0600)
Wautoma

Weather History for KY50 - February, 2013

Change the Weather History Date:

Saturday, February 23, 2013

  Actual Average (KPCZ) Record (KPCZ)
Temperature  
Mean Temperature 24 °F -  
Max Temperature 28 °F 36 °F 60 °F (1984)
Min Temperature 19 °F 17 °F -11 °F (2015)
Degree Days  
Heating Degree Days 42    
Moisture  
Dew Point 19 °F    
Average Humidity 80    
Maximum Humidity 93    
Minimum Humidity 63    
Precipitation  
Precipitation 0.00 in - - ()
Sea Level Pressure  
Sea Level Pressure 29.84 in    
Wind  
Wind Speed 0 mph (North)    
Max Wind Speed 0 mph    
Max Gust Speed -    
Visibility 8 miles    
Events Snow    
Averages and records for this station are not official NWS values.
T = Trace of Precipitation, MM = Missing Value Source: NWS Daily Summary

Daily Weather History Graph

Daily Weather History Graph

Search for Another Location

Airport or City:

Trip Planner

Search our weather history database for the weather conditions in past years. The results will help you decide how hot, cold, wet, or windy it might be!

Date:

Astronomy

Feb. 23, 2013 Rise Set
Actual Time 6:43 AM CST 5:38 PM CST
Civil Twilight 6:14 AM CST 6:07 PM CST
Nautical Twilight 5:40 AM CST 6:40 PM CST
Astronomical Twilight 5:07 AM CST 7:14 PM CST
Moon 3:46 PM CST (2/23) 5:08 AM CST (2/23)
Length of Visible Light 11h 52m
Length of Day
10h 54m
Waxing Gibbous, 95% of the Moon is Illuminated
Feb 23
Waxing Gibbous
Feb 25
Full
Mar 4
Last Quarter
Mar 11
New
Mar 19
First Quarter

Hourly Weather History & Observations

Time (CST) Temp. Dew Point Humidity Pressure Visibility Wind Dir Wind Speed Gust Speed Precip Events Conditions
12:17 AM 24.8 °F 19.4 °F 80% 29.80 in 10.0 mi Calm Calm - N/A   Overcast
12:33 AM 24.8 °F 19.4 °F 80% 29.80 in 10.0 mi Calm Calm - N/A   Overcast
12:56 AM 24.1 °F 20.1 °F 85% 29.83 in 10.0 mi Calm Calm - N/A   Overcast
1:23 AM 24.8 °F 19.4 °F 80% 29.80 in 10.0 mi Calm Calm - N/A   Overcast
1:49 AM 24.8 °F 19.4 °F 80% 29.80 in 10.0 mi Calm Calm - 0.00 in   Overcast
1:56 AM 24.1 °F 20.1 °F 85% 29.83 in 10.0 mi Calm Calm - 0.00 in   Overcast
2:56 AM 23.0 °F 20.1 °F 89% 29.82 in 10.0 mi Calm Calm - 0.00 in   Overcast
3:56 AM 23.0 °F 19.0 °F 85% 29.82 in 10.0 mi Calm Calm - N/A   Overcast
4:56 AM 23.0 °F 19.0 °F 85% 29.83 in 9.0 mi Calm Calm - 0.00 in   Overcast
5:40 AM 23.0 °F 19.4 °F 86% 29.80 in 5.0 mi Calm Calm - 0.00 in Snow Light Snow
5:56 AM 23.0 °F 19.4 °F 86% 29.81 in 6.0 mi Calm Calm - N/A Snow Light Snow
6:56 AM 22.1 °F 19.0 °F 88% 29.85 in 4.0 mi Calm Calm - 0.00 in Snow Light Snow
7:03 AM 21.2 °F 19.4 °F 93% 29.82 in 4.0 mi Calm Calm - 0.00 in Snow Light Snow
7:25 AM 21.2 °F 19.4 °F 93% 29.83 in 3.0 mi Calm Calm - 0.00 in Snow Light Snow
7:29 AM 21.2 °F 19.4 °F 93% 29.83 in 3.0 mi Calm Calm - 0.00 in Snow Light Snow
7:56 AM 22.1 °F 19.0 °F 88% 29.86 in 1.8 mi Calm Calm - 0.00 in Snow Light Snow
8:03 AM 21.2 °F 19.4 °F 93% 29.83 in 2.5 mi Calm Calm - 0.00 in Snow Light Snow
8:09 AM 21.2 °F 19.4 °F 93% 29.83 in 1.8 mi Calm Calm - 0.00 in Snow Light Snow
8:17 AM 21.2 °F 19.4 °F 93% 29.83 in 1.8 mi Calm Calm - 0.00 in Snow Light Snow
8:22 AM 21.2 °F 19.4 °F 93% 29.83 in 2.0 mi Calm Calm - 0.00 in Snow Light Snow
8:36 AM 23.0 °F 19.4 °F 86% 29.83 in 2.5 mi Calm Calm - 0.00 in Snow Light Snow
8:46 AM 23.0 °F 19.4 °F 86% 29.83 in 2.0 mi Calm Calm - 0.00 in Snow Light Snow
8:56 AM 23.0 °F 19.4 °F 86% 29.83 in 3.0 mi Calm Calm - N/A Snow Light Snow
9:56 AM 24.1 °F 18.1 °F 78% 29.86 in 8.0 mi Calm Calm - 0.00 in   Overcast
10:39 AM 24.8 °F 17.6 °F 74% 29.83 in 10.0 mi Calm Calm - 0.00 in   Overcast
10:56 AM 25.2 °F 18.1 °F 75% 29.86 in 10.0 mi Calm Calm - 0.00 in   Mostly Cloudy
11:49 AM 26.6 °F 17.6 °F 69% 29.83 in 10.0 mi Calm Calm - N/A   Scattered Clouds
11:56 AM 26.6 °F 17.6 °F 69% 29.82 in 10.0 mi Calm Calm - N/A   Scattered Clouds
12:10 PM 28.4 °F 17.6 °F 64% 29.82 in 10.0 mi Calm Calm - N/A   Mostly Cloudy
12:28 PM 26.6 °F 17.6 °F 69% 29.82 in 10.0 mi Calm Calm - N/A   Mostly Cloudy
12:36 PM 26.6 °F 17.6 °F 69% 29.82 in 10.0 mi Calm Calm - N/A   Mostly Cloudy
12:56 PM 28.0 °F 17.1 °F 63% 29.85 in 10.0 mi Calm Calm - N/A   Mostly Cloudy
1:07 PM 26.6 °F 17.6 °F 69% 29.82 in 10.0 mi Calm Calm - N/A   Overcast
1:56 PM 27.1 °F 17.1 °F 66% 29.84 in 10.0 mi Calm Calm - N/A   Overcast
2:56 PM 26.6 °F 17.6 °F 69% 29.82 in 10.0 mi Calm Calm - N/A   Overcast
3:12 PM 26.6 °F 17.6 °F 69% 29.82 in 10.0 mi Calm Calm - N/A   Overcast
3:56 PM 27.1 °F 18.1 °F 69% 29.85 in 10.0 mi Calm Calm - N/A   Overcast
4:03 PM 26.6 °F 17.6 °F 69% 29.83 in 10.0 mi Calm Calm - N/A   Overcast
4:10 PM 26.6 °F 17.6 °F 69% 29.83 in 10.0 mi Calm Calm - N/A   Overcast
4:56 PM 26.1 °F 18.1 °F 72% 29.87 in 10.0 mi Calm Calm - N/A   Overcast
5:56 PM 25.2 °F 19.0 °F 78% 29.89 in 10.0 mi Calm Calm - 0.00 in   Overcast
6:56 PM 23.0 °F 16.2 °F 75% 29.90 in 10.0 mi Calm Calm - N/A   Scattered Clouds
7:56 PM 19.0 °F 15.1 °F 85% 29.91 in 10.0 mi Calm Calm - N/A   Scattered Clouds
8:56 PM 22.1 °F 17.1 °F 81% 29.92 in 10.0 mi Calm Calm - N/A   Overcast
10:56 PM 24.1 °F 19.0 °F 81% 29.92 in 10.0 mi Calm Calm - N/A   Overcast
11:47 PM 24.8 °F 19.4 °F 80% 29.91 in 10.0 mi Calm Calm - N/A   Overcast
11:56 PM 24.8 °F 19.4 °F 80% 29.91 in 10.0 mi Calm Calm - N/A   Overcast